Total_Precipitation_Accumulation
0.09 0.13 0.29 0.71 2.31 5.00 4.80 4.09 3.50 2.94 2.86 2.13 1.82 1.66 1.70 1.74 1.25 0.95 0.80 0.86 0.93 0.79 0.46 0.47 0.33 0.18 0.10 0.07 0.06 0.17 0.27 0.33 0.52 0.72 0.73 0.62 0.46 0.30 0.20 0.16 0.17 0.19 0.20
0.06 0.12 0.15 0.27 1.06 2.90 4.50 3.71 3.74 3.33 3.44 2.80 2.43 2.41 2.34 2.41 1.75 1.67 0.98 0.72 0.67 0.73 0.65 0.35 0.35 0.29 0.16 0.12 0.11 0.10 0.11 0.14 0.26 0.30 0.35 0.38 0.34 0.26 0.16 0.14 0.13 0.15 0.21
0.06 0.06 0.11 0.16 0.47 1.15 3.46 4.17 3.45 3.00 3.15 3.64 3.07 2.19 2.25 2.41 1.85 1.46 1.22 1.08 1.12 1.01 0.73 0.71 0.32 0.25 0.31 0.26 0.16 0.16 0.17 0.16 0.14 0.20 0.22 0.23 0.16 0.14 0.13 0.12 0.08 0.08 0.10
0.05 0.03 0.07 0.06 0.11 0.45 1.82 4.36 3.91 2.92 3.08 3.15 3.31 2.63 1.91 1.97 1.79 1.78 1.85 1.41 1.35 1.52 1.26 1.12 0.96 0.56 0.38 0.42 0.45 0.39 0.32 0.30 0.26 0.22 0.16 0.14 0.11 0.16 0.09 0.06 0.13 0.15 0.12
0.03 0.03 0.03 0.05 0.08 0.31 1.00 2.56 3.40 4.25 3.84 4.10 3.81 3.77 3.22 2.31 1.82 2.03 1.87 1.58 1.18 1.15 1.71 1.72 1.74 1.68 1.38 1.02 0.84 0.80 0.64 0.49 0.39 0.28 0.26 0.32 0.24 0.19 0.23 0.17 0.06 0.06 0.06
0.02 0.03 0.04 0.09 0.14 0.34 0.54 1.69 2.71 3.46 4.50 5.13 5.67 4.54 3.64 3.22 2.58 2.08 2.11 1.91 1.64 1.18 1.13 1.26 1.41 1.58 1.86 1.61 1.43 1.17 0.90 0.84 0.71 0.60 0.46 0.46 0.50 0.42 0.43 0.38 0.23 0.22 0.14
0.04 0.05 0.03 0.12 0.23 0.29 0.49 0.66 1.69 2.47 3.34 4.65 5.85 5.38 4.42 2.85 2.35 2.10 2.02 1.88 2.01 1.74 1.54 1.35 1.23 1.25 1.08 1.19 1.00 1.01 1.04 0.96 0.91 0.93 0.94 0.93 0.89 0.97 0.98 0.98 0.73 0.55 0.35
0.10 0.08 0.08 0.13 0.25 0.39 0.61 0.70 0.81 1.19 2.01 3.09 4.50 4.47 3.97 3.25 2.92 2.34 1.66 1.27 1.18 1.55 1.56 1.40 1.14 0.96 1.10 0.99 1.03 1.02 1.03 1.16 1.27 1.30 1.34 1.25 1.15 1.29 1.44 1.45 1.40 1.12 0.73
0.20 0.14 0.20 0.26 0.44 0.43 0.56 0.79 0.70 0.89 1.11 2.04 2.89 3.79 3.93 3.09 2.81 2.88 2.68 1.49 1.02 1.03 1.31 1.06 0.88 0.71 0.61 0.66 0.72 0.71 0.81 0.94 1.01 0.98 0.93 0.89 0.79 0.83 0.96 1.20 1.41 1.76 1.50
0.43 0.28 0.36 0.36 0.53 0.42 0.38 0.67 0.70 0.51 0.71 1.25 1.66 2.55 3.71 3.90 3.40 2.78 2.65 2.26 1.44 1.18 1.11 1.12 0.71 0.44 0.39 0.39 0.45 0.47 0.39 0.52 0.68 0.81 0.90 0.88 0.84 0.93 1.02 1.12 1.19 1.47 1.67
0.67 0.66 0.65 0.63 0.52 0.53 0.40 0.56 0.72 0.49 0.48 0.70 1.04 1.44 2.17 3.15 3.27 3.55 2.85 2.61 1.99 1.46 1.50 1.51 1.46 0.93 0.46 0.30 0.31 0.33 0.35 0.39 0.41 0.52 0.69 0.72 0.74 0.88 0.98 1.09 1.29 1.40 1.52
1.48 1.24 0.83 0.87 1.09 1.13 0.89 0.91 1.13 0.72 0.39 0.45 0.49 0.68 0.90 1.72 1.85 2.44 2.73 2.64 2.23 1.82 1.23 1.29 1.44 1.35 1.13 0.71 0.47 0.33 0.33 0.31 0.31 0.34 0.50 0.50 0.70 0.84 0.88 1.01 1.04 1.03 0.98
2.02 1.82 1.36 1.68 1.95 2.01 1.44 1.01 1.20 1.05 0.55 0.44 0.55 0.63 0.67 0.89 1.03 1.46 1.79 2.05 2.37 1.98 1.52 1.30 1.58 1.45 1.41 1.30 0.98 0.73 0.61 0.53 0.45 0.46 0.48 0.43 0.56 0.60 0.57 0.64 0.67 0.73 0.88
2.73 2.84 2.36 2.16 2.33 2.38 1.82 1.53 1.66 1.71 1.33 1.38 1.15 0.70 0.83 1.12 0.86 0.85 1.24 1.35 1.86 2.30 1.79 1.52 1.03 0.96 1.04 1.20 1.29 1.19 1.04 0.88 0.72 0.60 0.54 0.55 0.56 0.52 0.56 0.67 0.73 0.82 0.99
3.11 3.18 3.08 3.03 2.71 2.43 2.42 2.47 2.74 2.80 2.71 2.23 1.30 1.09 0.99 0.84 0.92 1.08 1.29 1.63 1.65 2.01 1.96 1.81 1.49 1.04 0.98 1.09 0.98 1.03 1.14 1.09 1.03 0.95 0.91 0.79 0.73 0.69 0.69 0.71 0.70 1.00 1.08
1.89 1.94 1.99 2.20 2.19 2.16 2.54 2.52 2.34 2.37 2.30 2.21 2.19 1.88 1.21 0.93 0.66 0.78 0.92 1.39 1.68 1.94 2.78 2.32 2.40 1.91 1.49 1.46 1.34 1.21 1.20 1.33 1.37 1.24 1.03 0.98 1.07 0.92 0.86 0.84 0.81 0.96 1.26
0.90 0.76 0.70 0.71 0.86 1.03 0.97 1.05 1.47 1.89 2.00 2.32 2.34 1.91 1.64 1.23 0.98 0.84 0.94 1.17 1.59 1.87 2.56 2.96 2.72 2.77 2.71 2.66 2.09 1.90 1.72 1.84 1.79 1.59 1.46 1.28 1.09 1.23 1.20 1.33 1.29 1.33 1.46
0.47 0.40 0.35 0.24 0.20 0.23 0.16 0.19 0.19 0.28 0.70 1.23 1.69 1.75 2.00 2.09 2.30 1.78 1.78 1.98 2.23 2.47 2.63 3.10 3.15 2.26 2.20 2.37 1.98 1.65 1.34 1.16 1.13 1.14 1.15 1.23 1.28 1.27 1.19 1.26 1.62 1.46 1.22
0.26 0.28 0.28 0.20 0.12 0.08 0.04 0.04 0.06 0.09 0.08 0.17 0.35 0.63 1.15 1.58 1.85 1.87 2.34 2.49 2.62 2.97 3.02 2.81 2.66 2.10 1.96 1.93 1.67 1.83 1.72 1.56 1.37 1.21 1.09 1.13 1.07 1.18 1.19 1.33 1.48 1.28 1.16
0.26 0.22 0.20 0.24 0.22 0.17 0.11 0.12 0.07 0.09 0.19 0.16 0.16 0.42 0.93 0.88 0.83 0.77 1.08 1.24 1.18 1.14 1.36 1.62 1.70 1.69 1.36 1.46 1.26 1.02 1.13 1.31 1.23 1.27 1.06 1.35 0.94 1.12 1.25 0.97 0.88 0.93 0.81
0.26 0.24 0.23 0.24 0.39 0.36 0.36 0.37 0.29 0.39 0.47 0.31 0.30 0.51 0.59 0.65 0.64 0.59 0.59 0.58 0.64 0.62 0.59 0.62 0.61 0.59 0.60 0.65 0.84 0.79 0.63 0.57 0.66 0.74 0.76 0.81 1.18 1.13 1.04 1.03 0.94 1.07 1.08
0.36 0.52 0.33 0.42 0.58 0.62 0.83 0.79 0.71 0.66 0.58 0.45 0.44 0.43 0.38 0.38 0.40 0.37 0.45 0.43 0.43 0.44 0.40 0.35 0.33 0.29 0.32 0.41 0.42 0.43 0.51 0.74 0.69 0.66 0.73 1.07 1.44 0.86 0.77 0.83 0.99 1.19 1.12
0.03 0.18 0.11 0.17 0.23 0.30 0.37 0.50 0.43 0.34 0.33 0.25 0.26 0.27 0.25 0.26 0.24 0.20 0.22 0.27 0.31 0.33 0.36 0.33 0.31 0.31 0.21 0.19 0.26 0.25 0.30 0.34 0.28 0.31 0.59 0.73 0.64 0.61 0.74 0.97 0.96 0.84 0.71
0.04 0.02 0.04 0.03 0.05 0.07 0.10 0.12 0.06 0.08 0.12 0.17 0.19 0.23 0.29 0.30 0.23 0.20 0.19 0.17 0.17 0.17 0.21 0.23 0.23 0.23 0.20 0.17 0.15 0.18 0.18 0.19 0.23 0.40 0.42 0.31 0.26 0.31 0.34 0.48 0.42 0.31 0.44
0.16 0.15 0.12 0.09 0.08 0.06 0.06 0.07 0.11 0.16 0.24 0.28 0.29 0.30 0.33 0.39 0.34 0.30 0.26 0.20 0.16 0.13 0.11 0.10 0.10 0.13 0.15 0.15 0.26 0.21 0.15 0.19 0.32 0.34 0.26 0.33 0.28 0.25 0.26 0.21 0.21 0.32 0.56
0.09 0.08 0.07 0.07 0.09 0.15 0.19 0.21 0.23 0.27 0.33 0.37 0.42 0.43 0.40 0.39 0.33 0.28 0.33 0.36 0.34 0.35 0.31 0.29 0.25 0.24 0.24 0.32 0.30 0.30 0.37 0.42 0.41 0.42 0.28 0.25 0.24 0.39 0.51 0.57 0.65 0.68 0.76